Tracking 30986 objects as of 9-Jul-2025
HD Live streaming from Space Station
objects crossing your sky now

STARLINK-1147

Track STARLINK-1147 now!
10-day predictions
STARLINK-1147 is classified as:


NORAD ID: 45095
Int'l Code: 2020-006BD
Perigee: 378.3 km
Apogee: 382.3 km
Inclination: 53.1 °
Period: 92.0 minutes
Semi major axis: 6751 km
RCS: Unknown
Launch date: January 29, 2020
Source: United States (US)
Launch site: AIR FORCE EASTERN TEST RANGE (AFETR)
Your satellite tracking list
Your tracking list is empty




NASA's NSSDC Master Catalog

Two Line Element Set (TLE):
1 45095U 20006BD  25189.88326043  .00085584  00000-0  85087-3 0  9991
2 45095  53.0516 249.4371 0002999 349.0245  11.0703 15.65029508300445
Source of the keplerian elements: AFSPC